Weather History for San Antonio, TX

Change the Weather History Date:

Monday, November 12, 2012

  Actual Average Record
Temperature  
Mean Temperature 57 °F 62 °F  
Max Temperature 66 °F 73 °F 89 °F (1988)
Min Temperature 48 °F 52 °F 26 °F (1950)
Degree Days  
Heating Degree Days 8 5  
Month to date heating degree days 8 45  
Since 1 July heating degree days 63 78  
Cooling Degree Days 0 2  
Month to date cooling degree days 67 38  
Year to date cooling degree days 3548 3093  
Growing Degree Days 7 (Base 50)    
Moisture  
Dew Point 29 °F    
Average Humidity 38    
Maximum Humidity 59    
Minimum Humidity 17    
Precipitation  
Precipitation 0.00 in 0.08 in 2.32 in (1893)
Month to date precipitation 0.02 1.05  
Year to date precipitation 38.78 29.13  
Snow  
Snow 0.00 in - - ()
Month to date snowfall 0.0  
Since 1 July snowfall 0.0  
Since 1 September snowfall 0.0  
Snow Depth 0.00 in    
Sea Level Pressure  
Sea Level Pressure 30.35 in    
Wind  
Wind Speed 10 mph (NNE)    
Max Wind Speed 22 mph    
Max Gust Speed 28 mph    
Visibility 10 miles    
Events      
T = Trace of Precipitation, MM = Missing Value Source: NWS Daily Summary

Daily Weather History Graph

Daily Weather History Graph

Search for Another Location

Airport:

Trip Planner

Search our weather history database for the weather conditions in past years. The results will help you decide how hot, cold, wet, or windy it might be!

Date:

Astronomy

Nov. 12, 2012 Rise Set
Actual Time 6:56 AM CST 5:39 PM CST
Civil Twilight 6:31 AM CST 6:04 PM CST
Nautical Twilight 6:02 AM CST 6:33 PM CST
Astronomical Twilight 5:34 AM CST 7:01 PM CST
Moon 5:27 AM CST (11/12) 4:44 PM CST (11/12)
Length of Visible Light 11h 33m
Length of Day
10h 43m
Waning Crescent, 2% of the Moon is Illuminated
Nov 12
Waning Crescent
Nov 13
New
Nov 20
First Quarter
Nov 28
Full
Dec 6
Last Quarter

Hourly Weather History & Observations

Time (CST) Temp. Dew Point Humidity Pressure Visibility Wind Dir Wind Speed Gust Speed Precip Events Conditions
12:53 AM 64.9 °F 19.9 °F 18% 30.17 in 10.0 mi North 13.8 mph 21.9 mph N/A   Mostly Cloudy
1:53 AM 62.1 °F 17.1 °F 18% 30.17 in 10.0 mi North 17.3 mph 24.2 mph N/A   Mostly Cloudy
2:53 AM 62.1 °F 23.0 °F 22% 30.18 in 10.0 mi NNE 12.7 mph 20.7 mph N/A   Mostly Cloudy
3:53 AM 60.1 °F 28.9 °F 31% 30.20 in 10.0 mi North 12.7 mph - N/A   Overcast
4:53 AM 57.0 °F 34.0 °F 42% 30.22 in 10.0 mi North 10.4 mph 27.6 mph N/A   Overcast
5:53 AM 53.1 °F 39.0 °F 59% 30.26 in 10.0 mi North 9.2 mph - N/A   Overcast
6:53 AM 51.1 °F 36.0 °F 56% 30.30 in 10.0 mi North 10.4 mph - N/A   Mostly Cloudy
7:53 AM 50.0 °F 35.1 °F 57% 30.35 in 10.0 mi North 16.1 mph 23.0 mph N/A   Mostly Cloudy
8:53 AM 50.0 °F 30.9 °F 48% 30.40 in 10.0 mi NNE 12.7 mph 24.2 mph N/A   Mostly Cloudy
9:53 AM 53.1 °F 30.9 °F 43% 30.42 in 10.0 mi NNE 13.8 mph 21.9 mph N/A   Mostly Cloudy
10:53 AM 54.0 °F 30.0 °F 40% 30.43 in 10.0 mi NNE 12.7 mph - N/A   Mostly Cloudy
11:53 AM 57.9 °F 30.9 °F 36% 30.41 in 10.0 mi NNE 10.4 mph - N/A   Partly Cloudy
12:53 PM 60.1 °F 28.9 °F 31% 30.39 in 10.0 mi NNE 10.4 mph 18.4 mph N/A   Partly Cloudy
1:53 PM 61.0 °F 28.0 °F 29% 30.36 in 10.0 mi ENE 12.7 mph 20.7 mph N/A   Partly Cloudy
2:53 PM 63.0 °F 28.0 °F 27% 30.35 in 10.0 mi North 10.4 mph - N/A   Clear
3:53 PM 62.1 °F 26.1 °F 25% 30.35 in 10.0 mi NNE 9.2 mph - N/A   Clear
4:53 PM 60.1 °F 26.1 °F 27% 30.36 in 10.0 mi NNE 11.5 mph - N/A   Clear
5:53 PM 55.9 °F 28.0 °F 34% 30.38 in 10.0 mi NNE 5.8 mph - N/A   Clear
6:36 PM 53.6 °F 28.4 °F 38% 30.41 in 10.0 mi NNE 6.9 mph - N/A   Clear
6:53 PM 53.1 °F 28.9 °F 40% 30.39 in 10.0 mi NE 4.6 mph - N/A   Clear
7:53 PM 52.0 °F 28.0 °F 40% 30.41 in 10.0 mi NNE 5.8 mph - N/A   Clear
8:53 PM 50.0 °F 28.0 °F 43% 30.43 in 10.0 mi NNE 3.5 mph - N/A   Clear
9:53 PM 50.0 °F 28.0 °F 43% 30.44 in 10.0 mi NNE 4.6 mph - N/A   Scattered Clouds
10:53 PM 52.0 °F 26.1 °F 37% 30.45 in 10.0 mi NNE 5.8 mph - N/A   Overcast
11:53 PM 52.0 °F 25.0 °F 35% 30.44 in 10.0 mi NNE 8.1 mph - N/A   Overcast